Location: Vihti�l�
(61.3833°N, 23.0667°E)
Time: 04:30:08
(UTC+00:00)

Meteor 1-19 Rocket - Pass Details

Date: 29 November 2020
Orbit: 809 x 926 km, 81.2° (Epoch: 19 January)

Event Time Altitude Azimuth Distance (km) Brightness Sun altitude
Exits shadow 05:39:21 - 341° (NNW) 3,202 6.8 -9.5°
Reaches altitude 10° 05:41:15 10° 339° (NNW) 2,467 6.2 -9.3°
Maximum altitude 05:46:44 62° 260° (W) 931 4.2 -8.7°
Drops below altitude 10° 05:52:04 10° 181° (S) 2,401 7.0 -8.1°
Sets 05:54:26 0° 178° (S) 3,324 7.8 -7.9°
